Total_Precipitation_Accumulation
3.31 3.54 3.35 3.07 3.12 3.21 3.72 4.16 4.29 3.75 3.39 3.23 3.05 2.66 2.57 2.57 2.74 2.49 2.44 2.34 2.04 1.92 1.82 1.70 1.66 1.74 1.91 2.05 2.16 2.33 2.53 2.79 3.08 3.26 3.45 3.71 3.90 4.13
3.36 3.54 3.47 3.16 3.18 3.21 3.59 4.03 4.25 4.32 3.72 3.26 3.20 2.80 2.56 2.30 2.56 2.42 2.37 2.39 2.07 1.87 1.79 1.67 1.56 1.50 1.50 1.57 1.64 1.72 1.85 2.06 2.30 2.50 2.63 2.82 2.98 3.23
2.94 3.09 3.24 3.45 3.42 3.41 3.64 3.84 4.05 4.33 3.82 3.40 3.46 3.26 2.99 2.67 2.54 2.49 2.28 2.20 2.05 1.92 1.72 1.66 1.57 1.46 1.41 1.42 1.44 1.51 1.60 1.72 1.91 2.08 2.24 2.34 2.37 2.51
2.96 3.11 2.97 3.17 3.31 3.32 3.49 3.66 3.89 4.18 3.98 3.74 3.81 3.75 3.49 3.10 2.94 2.78 2.36 2.16 2.07 2.07 1.82 1.67 1.58 1.51 1.41 1.41 1.42 1.41 1.46 1.52 1.64 1.76 1.91 2.06 2.18 2.22
2.75 2.76 2.68 2.91 2.90 3.06 3.16 3.29 3.53 3.81 3.93 3.76 3.74 3.82 3.54 3.29 3.19 2.78 2.51 2.51 2.15 2.19 2.17 1.86 1.66 1.57 1.52 1.46 1.42 1.44 1.45 1.47 1.52 1.64 1.79 1.94 2.10 2.22
2.32 2.31 2.32 2.44 2.61 2.96 3.03 3.11 3.25 3.51 3.64 3.65 3.68 3.68 3.51 3.44 3.47 3.07 2.88 2.76 2.48 2.13 2.19 1.93 1.82 1.72 1.62 1.53 1.49 1.51 1.59 1.59 1.61 1.68 1.80 1.91 2.02 2.14
2.12 1.98 1.91 2.02 2.22 2.45 2.34 2.63 2.90 3.07 3.16 3.33 3.45 3.62 3.43 3.53 3.36 3.25 3.08 2.98 2.88 2.56 2.47 2.10 1.94 1.79 1.66 1.57 1.53 1.54 1.63 1.70 1.73 1.79 1.86 1.97 2.08 2.18
2.12 2.00 1.85 1.84 1.91 1.98 1.98 2.08 2.34 2.57 2.75 3.05 3.22 3.40 3.26 3.26 3.46 3.44 3.35 3.16 3.00 2.82 2.98 2.79 2.51 2.32 1.97 1.62 1.58 1.55 1.58 1.71 1.79 1.82 1.92 2.02 2.14 2.24
2.23 2.21 1.86 1.55 1.74 1.72 1.81 1.82 1.88 2.04 2.30 2.68 2.84 2.87 3.08 3.15 3.50 3.53 3.65 3.49 3.28 3.17 3.38 3.28 3.07 2.89 2.22 1.98 1.93 1.63 1.49 1.48 1.58 1.68 1.76 1.91 2.03 2.12
2.07 2.06 2.01 1.91 1.82 1.82 1.81 1.75 1.59 1.66 1.87 1.91 2.06 2.36 2.89 3.28 3.38 3.41 3.73 3.71 3.46 3.31 3.43 3.43 3.14 3.03 2.48 2.10 1.97 1.64 1.43 1.38 1.41 1.50 1.62 1.76 1.96 2.11
1.88 1.81 1.77 1.79 1.86 1.72 1.77 1.76 1.64 1.58 1.61 1.74 1.81 2.02 2.34 2.74 3.01 3.12 3.24 3.40 3.37 3.31 3.39 3.51 3.37 3.29 3.20 2.79 2.21 1.93 1.57 1.41 1.40 1.44 1.48 1.57 1.76 2.01
1.78 1.64 1.54 1.49 1.56 1.54 1.65 1.79 1.68 1.60 1.65 1.65 1.62 1.72 1.89 2.10 2.25 2.26 2.48 2.73 2.82 2.95 2.94 3.29 3.51 3.67 3.83 3.58 2.94 2.38 2.03 1.78 1.60 1.49 1.49 1.54 1.71 1.66
1.69 1.53 1.44 1.40 1.35 1.34 1.40 1.53 1.62 1.75 1.80 1.81 1.83 1.83 1.99 2.11 2.13 2.13 2.30 2.50 2.54 2.46 2.44 2.76 3.05 3.36 3.63 3.68 3.43 2.93 2.53 2.27 1.98 1.77 1.68 1.66 1.70 1.68
1.78 1.68 1.61 1.48 1.34 1.29 1.25 1.34 1.50 1.54 1.66 1.77 1.81 1.82 1.88 2.02 2.13 2.24 2.36 2.52 2.55 2.48 2.60 2.82 2.91 2.95 2.90 2.85 2.89 2.75 2.59 2.47 2.38 2.25 2.08 2.11 2.02 2.03
1.80 1.82 1.70 1.56 1.47 1.43 1.46 1.53 1.53 1.52 1.71 1.84 1.83 1.80 1.87 1.99 2.12 2.26 2.35 2.49 2.56 2.43 2.34 2.48 2.58 2.75 2.92 2.70 2.46 2.36 2.42 2.48 2.56 2.71 2.70 2.53 2.33 2.25
1.83 1.83 1.72 1.60 1.51 1.48 1.48 1.47 1.46 1.57 1.71 1.74 1.81 1.92 1.94 2.01 2.09 2.14 2.25 2.32 2.33 2.23 2.24 2.27 2.39 2.59 2.65 2.65 2.57 2.36 2.38 2.55 2.60 2.75 2.95 2.99 2.85 2.65
2.25 2.14 2.02 1.88 1.71 1.66 1.63 1.64 1.69 1.77 1.79 1.85 1.93 1.95 1.89 1.88 1.94 2.03 2.25 2.33 2.19 1.96 2.01 2.18 2.39 2.52 2.46 2.53 2.52 2.31 2.31 2.32 2.42 2.64 2.84 2.88 2.76 2.65
2.25 2.13 2.20 2.17 2.06 2.02 1.96 1.92 1.91 1.90 1.89 1.91 1.94 1.94 1.91 1.89 1.98 2.07 2.29 2.39 2.30 2.07 1.99 2.13 2.38 2.63 2.68 2.53 2.30 2.26 2.24 2.25 2.37 2.64 2.72 2.69 2.52 2.35
2.20 2.18 2.23 2.27 2.23 2.20 2.20 2.11 2.01 1.99 2.07 2.05 2.01 2.03 2.06 2.07 2.13 2.18 2.27 2.31 2.26 2.12 2.03 2.15 2.32 2.48 2.50 2.32 2.15 2.01 2.12 2.25 2.51 2.63 2.62 2.56 2.43 2.28
2.07 2.23 2.26 2.25 2.26 2.25 2.21 2.15 2.10 2.17 2.25 2.13 2.05 2.06 2.12 2.15 2.18 2.19 2.23 2.26 2.24 2.20 2.20 2.18 2.22 2.37 2.40 2.35 2.30 2.13 1.96 2.13 2.38 2.49 2.46 2.41 2.34 2.30
2.25 2.32 2.31 2.28 2.25 2.29 2.32 2.29 2.24 2.28 2.34 2.31 2.20 2.21 2.27 2.32 2.30 2.27 2.33 2.36 2.27 2.16 2.10 1.97 2.06 2.44 2.66 2.80 2.54 2.26 2.31 2.35 2.44 2.48 2.51 2.53 2.44 2.30
2.18 2.26 2.22 2.17 2.17 2.21 2.24 2.27 2.29 2.34 2.43 2.45 2.34 2.27 2.31 2.41 2.32 2.33 2.39 2.37 2.26 2.16 2.12 2.09 2.29 2.56 2.75 2.89 2.65 2.52 2.70 2.74 2.76 2.82 2.80 2.75 2.51 2.28
2.09 2.09 2.04 2.00 2.03 2.10 2.18 2.27 2.33 2.35 2.33 2.33 2.31 2.26 2.24 2.32 2.32 2.36 2.40 2.43 2.45 2.42 2.41 2.43 2.53 2.62 2.55 2.57 2.65 2.63 2.68 2.82 2.83 2.80 2.78 2.81 2.55 2.20